Location: Rounton
(54.4000°N, 1.3500°W)
Time: 20:03:08
(UTC+00:00)

Altair - Pass Details

Date: 03 December 2021
Orbit: 1501 x 1683 km, 47.2° (Epoch: 16 January)

Event Time Altitude Azimuth Distance (km) Brightness Sun altitude
Rises 13:43:36 0° 175° (S) 4,781 11.2 10.0°
Reaches altitude 10° 13:49:11 10° 149° (SSE) 3,757 10.1 9.6°
Maximum altitude 13:52:44 13° 127° (SE) 3,524 9.6 9.4°
Drops below altitude 10° 13:56:15 10° 104° (ESE) 3,714 9.4 9.1°
Sets 14:01:39 0° 79° (ENE) 4,670 9.6 8.8°
